EST,Max TemperatureF,Mean TemperatureF,Min TemperatureF,Max Dew PointF,MeanDew PointF,Min DewpointF,Max Humidity, Mean Humidity, Min Humidity, Max Sea Level PressureIn, Mean Sea Level PressureIn, Min Sea Level PressureIn, Max VisibilityMiles, Mean VisibilityMiles, Min VisibilityMiles, Max Wind SpeedMPH, Mean Wind SpeedMPH, Max Gust SpeedMPH,PrecipitationIn, CloudCover, Events, WindDirDegrees
2012-11-1,55,50,45,45,40,37,82,69,58,29.58,29.55,29.52,10,10,10,14,3,24,0.00,5,,239
2012-11-2,53,48,43,41,37,32,79,66,56,29.62,29.58,29.55,10,10,10,13,6,22,0.00,7,,294
2012-11-3,54,48,42,34,33,30,73,61,48,29.82,29.72,29.63,10,10,10,14,10,25,0.00,3,,310
2012-11-4,53,45,37,36,32,30,73,64,50,29.93,29.87,29.83,10,10,10,13,8,16,0.00,1,,312
2012-11-5,45,39,33,30,24,19,70,57,46,30.14,30.00,29.93,10,10,10,15,9,23,0.00,4,,349
2012-11-6,41,36,30,27,19,16,70,53,38,30.23,30.18,30.12,10,10,10,13,7,,0.00,0,,17
2012-11-7,44,39,33,36,34,29,93,82,65,30.08,29.80,29.60,10,7,2,38,22,51,0.23,7,Rain-Snow,24
2012-11-8,39,36,32,36,34,30,96,87,73,29.73,29.59,29.50,10,8,2,31,25,47,0.04,8,Rain-Snow,347
2012-11-9,53,45,37,32,27,22,73,53,31,30.13,29.93,29.74,10,10,10,18,13,28,0.00,1,,318
2012-11-10,54,48,42,39,35,29,82,65,45,30.45,30.29,30.13,10,10,10,9,6,16,0.00,1,,317
2012-11-11,57,52,46,52,46,37,93,77,63,30.51,30.48,30.45,10,9,6,14,7,20,0.00,3,,180
2012-11-12,63,57,51,58,55,51,100,92,81,30.49,30.44,30.26,10,7,1,13,7,20,0.00,3,,180
2012-11-13,62,52,41,61,48,30,97,87,65,30.40,30.24,30.17,10,8,2,21,12,28,0.02,8,Rain,296
2012-11-14,45,40,36,31,29,26,70,65,53,30.49,30.44,30.38,10,10,10,17,12,25,0.00,4,Rain,6
2012-11-15,41,38,36,33,31,26,79,73,67,30.42,30.36,30.28,10,10,10,12,9,20,0.00,8,,357
2012-11-16,46,40,33,33,31,28,89,73,56,30.41,30.31,30.27,10,10,10,12,7,,0.00,2,,1
2012-11-17,50,42,33,34,30,25,85,69,52,30.65,30.56,30.42,10,10,10,12,7,,0.00,0,,21
2012-11-18,48,39,30,34,31,28,96,75,46,30.69,30.64,30.59,10,9,5,12,5,,0.00,0,,20
2012-11-19,48,41,34,39,35,31,89,80,68,30.59,30.43,30.25,10,10,10,12,8,,0.00,4,,10
2012-11-20,50,42,34,38,36,33,96,81,61,30.23,30.16,30.11,10,10,8,10,7,,0.00,1,,13
2012-11-21,50,44,37,41,37,32,92,79,66,30.23,30.18,30.14,10,10,6,13,7,,0.00,1,,4
2012-11-22,53,45,35,42,39,34,100,85,66,30.26,30.21,30.14,10,8,4,10,5,,0.00,1,,19
2012-11-23,51,40,30,48,40,30,100,92,74,30.12,29.96,29.67,10,6,0,9,2,,0.00,5,Fog,202
2012-11-24,50,42,33,47,28,17,93,58,37,29.71,29.62,29.56,10,10,10,18,9,32,0.00,4,,293
2012-11-25,41,36,32,23,19,17,61,52,38,29.90,29.81,29.71,10,10,10,18,12,34,0.00,0,,280
2012-11-26,46,40,32,26,23,21,69,53,37,30.25,30.07,29.91,10,10,10,13,8,25,0.00,1,,286
2012-11-27,39,34,28,34,31,24,96,89,65,30.32,30.25,30.18,10,6,2,10,4,,0.02,8,Rain-Snow,26
2012-11-28,39,36,32,32,28,23,96,79,60,30.18,30.15,30.10,10,10,4,15,11,23,0.00,5,Snow,339
2012-11-29,42,37,32,27,24,19,73,61,40,30.30,30.24,30.19,10,10,10,13,8,20,0.00,0,,283
2012-11-30,39,34,30,27,22,13,73,59,38,30.53,30.42,30.26,10,10,9,12,7,,0.00,4,,14